Regional Weather Roundup
Issued by NWS

Home | Current Version | Previous Version | Text Only | Print | Product List | Glossary Off
Versions: 1 2 3 4 5 6 7 8 9 10 11 12 13 14 15 16 17 18 19 20 21 22 23 24 25 26 27 28 29 30 31 32 33 34 35 36 37 38 39 40 41 42 43 44 45 46 47 48 49 50

000
ASUS43 KDTX 040410
RWRMI
MICHIGAN HOURLY REGIONAL WEATHER ROUNDUP
NATIONAL WEATHER SERVICE DETROIT/PONTIAC MI
1200 AM EDT TUE AUG 04 2015

NOTE: "FAIR" INDICATES FEW OR NO CLOUDS BELOW 12,000 FEET WITH NO
SIGNIFICANT WEATHER AND/OR OBSTRUCTION TO VISIBILITY.

MIZ047>049-052>055-059>063-066>070-074>076-081>083-040500-
SOUTHEAST LOWER MICHIGAN

CITY           SKY/WX    TMP DP  RH WIND       PRES   REMARKS
ADRIAN         CLEAR     63  52  67 W3        29.90R
ALMA           CLOUDY    62  57  84 SW5       29.87R
ANN ARBOR      CLEAR     60  53  77 SW3       29.87S
BAD AXE        MOCLDY    60  58  91 CALM      29.84S
CARO           CLOUDY    63  57  82 W3        29.84S
DETROIT CITY   CLEAR     69  50  50 W6        29.85S
DETROIT        PTCLDY    67  51  56 W6        29.87R
FLINT          MOCLDY    64  53  67 SW3       29.86S
GROSSE ILE     CLEAR     68  52  56 W6        29.85S
HILLSDALE      CLEAR     62  52  71 CALM      29.91S
HOWELL         CLEAR     60  52  75 CALM      29.87S

CITY           SKY/WX    TMP DP  RH WIND       PRES   REMARKS
JACKSON        CLEAR     59  55  87 SW6       29.89S
LAMBERTVILLE   CLEAR     63  54  73 CALM      29.89S
LANSING        MOCLDY    64  52  64 W7        29.88S
LAPEER         FAIR      64  55  73 CALM      29.86S
MASON          CLEAR     61  51  70 W3        29.88F
MONROE         CLEAR     63  54  74 W3        29.87S
MT. CLEMENS    MOCLDY    67  54  63 W8        29.83S
PONTIAC        CLEAR     64  53  67 W7        29.86R
PORT HURON     PTCLDY    59  57  94 CALM      29.84S
TRI CITIES     PTCLDY    63  56  78 W6        29.85S
MIDLAND        FAIR      58  55  90 CALM      29.84S
TROY           CLEAR     68  51  54 W3        29.87S
SAGINAW HB     MOCLDY    63  57  82 SW5       29.84S
$$
MIZ043>046-050>051-056>058-064>065-071>073-077>080-040500-
SOUTHWEST LOWER MICHIGAN

CITY           SKY/WX    TMP DP  RH WIND       PRES   REMARKS
BATTLE CREEK     N/A    N/A N/A N/A MISG      29.90S
BENTON HARBOR  CLEAR     60  57  89 CALM      29.89S
BIG RAPIDS     MOCLDY    64  50  61 CALM      29.87R
COLDWATER      CLEAR     60  53  77 CALM      29.91S
FREMONT        FAIR      62  59  88 SW5       29.86S
HOLLAND        MOCLDY    65  56  72 W3        29.88S
GRAND RAPIDS   MOCLDY    66  53  63 SW7       29.88R
IONIA          CLOUDY    64  54  69 W3        29.87S
KALAMAZOO      CLEAR     62  54  74 SW5       29.90S
LUDINGTON      MOCLDY    63  59  88 CALM      29.86R
MARSHALL       CLEAR     60  54  80 CALM      29.89S
MOUNT PLEASANT PTCLDY    63  55  75 W3        29.85R
MUSKEGON       MOCLDY    66  57  72 SW7       29.87S
SOUTH HAVEN    PTCLDY    60  56  88 CALM      29.89S
$$
MIZ016>042-040500-
NORTHERN LOWER MICHIGAN

CITY           SKY/WX    TMP DP  RH WIND       PRES   REMARKS
ALPENA         PTCLDY    59  54  83 W3        29.83R
BEAVER ISLAND  CLOUDY    58  57  97 CALM      29.83S
BELLAIRE       MOCLDY    57  56  95 CALM      29.84R FOG
CADILLAC       CLEAR     54  53  96 CALM      29.86S
CHARLEVOIX     CLOUDY    60  59  96 SW3       29.86S
FRANKFORT      PTCLDY    57  56  95 CALM      29.84S
GAYLORD        MOCLDY    58  58 100 CALM      29.85S
GRAYLING       CLEAR     53  52  98 CALM      29.86R
HARBOR SPRINGS CLOUDY    60  58  92 CALM      29.83S
HOUGHTON LAKE  CLEAR     59  52  77 CALM      29.86R
MANISTEE       MOCLDY    57  54  88 CALM      29.86R
OSCODA         CLOUDY    63  58  86 W5        29.82S
PELLSTON       MOCLDY    59  56  89 CALM      29.83S
ROGERS CITY    MOCLDY    59  56  91 W3        29.83S
TRAVERSE CITY  CLEAR     59  55  87 CALM      29.82S
$$
MIZ007>008-015-040500-
EASTERN UPPER MICHIGAN

CITY           SKY/WX    TMP DP  RH WIND       PRES   REMARKS
KINROSS        CLOUDY    55  54  94 SW3       29.80F
MACKINAC ISLAN CLOUDY    60  53  77 W6        29.82R
NEWBERRY       CLOUDY    58  54  88 CALM      29.80F
S. S. MARIE    CLOUDY    58  53  84 W7        29.79S
MUNISING         N/A     63  54  72 SW6       29.80F
$$
MIZ004>006-011>014-085-040500-
CENTRAL UPPER MICHIGAN

CITY           SKY/WX    TMP DP  RH WIND       PRES   REMARKS
MANISTIQUE     CLOUDY    61  57  88 SW3       29.81F
ESCANABA       CLOUDY    61  54  77 W5        29.82S
MENOMINEE      CLOUDY    63  52  67 CALM      29.84S
SAWYER-GWINN   CLOUDY    61  53  74 W7        29.82S
$$
MIZ001>003-009>011-084-040500-
WESTERN UPPER MICHIGAN

CITY           SKY/WX    TMP DP  RH WIND       PRES   REMARKS
IRON MOUNTAIN  LGT RAIN  59  57  93 W3        29.84S
HOUGHTON       MOCLDY    56  54  93 NW8       29.82S
COPPER HARBOR    N/A     60  54  80 N9        29.80R
IRONWOOD       CLOUDY    59  57  94 W6        29.85F
$$

ABBREVIATIONS USED IN REMARKS
   TC - TEMPERATURE IN CELSIUS
  WCI - WIND CHILL INDEX
   HX - HEAT INDEX
  VSB - VISIBILITY




USA.gov is the U.S. government's official web portal to all federal, state and local government web resources and services.